Location: Oshawa
(43.9000°N, 78.8670°W)
Time: 01:22:57
(UTC-04:00)

CZ-4C R/B - Visible Passes

Search period start: 30 July 2016 00:00
Search period end: 09 August 2016 00:00
Orbit: 420 x 515 km, 97.5° (Epoch: 29 July)

Date Brightness Start Highest point End Pass type
(mag) Time Alt. Az. Time Alt. Az. Time Alt. Az.
30 Jul 4.5 00:34:33 39° N 00:34:33 39° N 00:37:01 10° N visible
31 Jul 4.8 00:04:48 28° NE 00:04:48 28° NE 00:07:12 10° N visible
31 Jul 5.8 01:38:49 14° WNW 01:38:49 14° WNW 01:39:39 10° NW visible
31 Jul 5.5 23:35:03 15° NE 23:35:03 15° NE 23:36:50 10° NNE visible
01 Aug 5.2 01:09:04 24° NW 01:09:04 24° NW 01:10:51 10° NNW visible
02 Aug 4.8 00:39:19 34° N 00:39:19 34° N 00:41:29 10° N visible
03 Aug 4.9 00:09:34 27° NNE 00:09:34 27° NNE 00:11:43 10° N visible
03 Aug 6.0 01:43:35 11° WNW 01:43:35 11° WNW 01:43:53 10° NW visible
03 Aug 5.5 23:39:49 16° NE 23:39:49 16° NE 23:41:25 10° NNE visible
04 Aug 5.5 01:13:50 20° NW 01:13:50 20° NW 01:15:13 10° NNW visible
05 Aug 5.1 00:44:04 28° NNW 00:44:04 28° NNW 00:45:53 10° NNW visible
06 Aug 5.1 00:14:18 25° NNE 00:14:18 25° NNE 00:16:09 10° N visible
06 Aug 5.5 23:44:32 16° NE 23:44:32 16° NE 23:45:56 10° NNE visible
07 Aug 5.8 01:18:33 16° NW 01:18:33 16° NW 01:19:31 10° NNW visible
08 Aug 5.4 00:48:47 23° NNW 00:48:47 23° NNW 00:50:15 10° NNW visible
